| time (UTC) | temp C | wind direction | speed KPH | gust KPH | rain 1hr cm | rain 24hr cm | rain mn cm | humidity % | barometer mb |
| 20260506073504 | 12 | 153 | 22.5 | 29.0 | 0.03 | 2.36 | 0.66 | 97 | 1006.0 |
| 20260506073005 | 12 | 143 | 24.1 | 27.4 | 0.03 | 2.36 | 0.66 | 97 | 1006.1 |
| 20260506072525 | 12 | 134 | 24.1 | 29.0 | 0.03 | 2.36 | 0.66 | 97 | 1005.9 |
| 20260506072026 | 12 | 132 | 22.5 | 33.8 | 0.03 | 2.36 | 0.66 | 97 | 1006.0 |
| 20260506071504 | 12 | 153 | 19.3 | 33.8 | 0.03 | 2.36 | 0.66 | 100 | 1006.1 |
| 20260506071004 | 12 | 151 | 14.5 | 24.1 | 0.00 | 2.36 | 0.64 | 100 | 1006.0 |
| 20260506070504 | 12 | 129 | 16.1 | 19.3 | 0.00 | 2.36 | 0.64 | 100 | 1006.2 |
| 20260506062505 | 12 | 138 | 17.7 | 25.7 | 0.03 | 2.64 | 0.64 | 100 | 1006.5 |
| 20260506062004 | 12 | 131 | 19.3 | 25.7 | 0.03 | 2.67 | 0.64 | 100 | 1006.5 |
| 20260506061505 | 12 | 133 | 17.7 | 25.7 | 0.03 | 2.67 | 0.64 | 100 | 1006.6 |
| 20260506061005 | 12 | 141 | 12.9 | 17.7 | 0.03 | 2.67 | 0.64 | 100 | 1006.5 |
| 20260506060504 | 12 | 136 | 12.9 | 16.1 | 0.03 | 2.69 | 0.64 | 100 | 1006.6 |
| 20260506051004 | 12 | 189 | 20.9 | 24.1 | 0.00 | 2.77 | 0.61 | 100 | 1006.7 |
| 20260506050504 | 12 | 174 | 20.9 | 27.4 | 0.00 | 2.77 | 0.61 | 100 | 1006.8 |
| 20260506045004 | 12 | 152 | 19.3 | 27.4 | 0.00 | 2.79 | 0.61 | 97 | 1006.9 |
| 20260506044526 | 12 | 156 | 17.7 | 24.1 | 0.00 | 2.79 | 0.61 | 97 | 1006.7 |
| 20260506044004 | 12 | 172 | 17.7 | 24.1 | 0.00 | 2.79 | 0.61 | 97 | 1006.9 |
| 20260506043505 | 12 | 168 | 19.3 | 24.1 | 0.00 | 2.79 | 0.61 | 97 | 1007.1 |
| 20260506043004 | 12 | 177 | 19.3 | 24.1 | 0.03 | 2.79 | 0.61 | 97 | 1007.2 |
| 20260506042504 | 12 | 183 | 19.3 | 27.4 | 0.03 | 2.79 | 0.61 | 97 | 1007.2 |
| 20260506042005 | 12 | 170 | 20.9 | 27.4 | 0.03 | 2.79 | 0.61 | 97 | 1007.3 |
| 20260506041505 | 12 | 145 | 20.9 | 27.4 | 0.03 | 2.79 | 0.61 | 97 | 1007.2 |
| 20260506041004 | 12 | 178 | 24.1 | 27.4 | 0.05 | 2.79 | 0.61 | 97 | 1007.1 |
| 20260506040504 | 12 | 183 | 20.9 | 25.7 | 0.30 | 2.82 | 0.61 | 97 | 1007.2 |
| 20260506040025 | 12 | 151 | 16.1 | 25.7 | 0.30 | 2.82 | 0.61 | 97 | 1007.3 |
| 20260506035504 | 12 | 155 | 14.5 | 17.7 | 0.30 | 2.82 | 0.61 | 97 | 1007.3 |
| 20260506035004 | 12 | 168 | 14.5 | 17.7 | 0.33 | 2.82 | 0.61 | 97 | 1007.1 |
| 20260506034505 | 12 | 169 | 14.5 | 22.5 | 0.43 | 2.82 | 0.61 | 97 | 1007.2 |
| 20260506034004 | 12 | 162 | 14.5 | 22.5 | 0.56 | 2.82 | 0.61 | 97 | 1007.2 |
| 20260506033504 | 12 | 150 | 14.5 | 19.3 | 0.56 | 2.82 | 0.61 | 97 | 1007.2 |
| 20260506033005 | 12 | 142 | 12.9 | 19.3 | 0.53 | 2.79 | 0.56 | 96 | 1007.3 |
| 20260506032504 | 12 | 137 | 11.3 | 14.5 | 0.53 | 2.79 | 0.56 | 96 | 1007.2 |
| 20260506032025 | 12 | 144 | 12.9 | 14.5 | 0.53 | 2.79 | 0.56 | 96 | 1007.5 |
| 20260506031525 | 12 | 142 | 11.3 | 17.7 | 0.53 | 2.79 | 0.56 | 96 | 1007.2 |
| 20260506031004 | 12 | 166 | 8.0 | 17.7 | 0.51 | 2.77 | 0.53 | 96 | 1007.3 |
| 20260506030505 | 12 | 192 | 4.8 | 6.4 | 0.28 | 2.51 | 0.30 | 96 | 1007.5 |
| 20260506030005 | 12 | 142 | 4.8 | 8.0 | 0.28 | 2.51 | 0.30 | 96 | 1007.7 |
| 20260506025525 | 12 | 106 | 4.8 | 8.0 | 0.28 | 2.51 | 0.30 | 96 | 1007.5 |
| 20260506025005 | 12 | 64 | 3.2 | 6.4 | 0.23 | 2.49 | 0.28 | 96 | 1007.9 |
| 20260506024525 | 12 | 75 | 1.6 | 4.8 | 0.15 | 2.39 | 0.18 | 96 | 1008.0 |
| 20260506024025 | 12 | 0 | 0.0 | 0.0 | 0.00 | 2.26 | 0.03 | 96 | 1008.1 |
| 20260506023525 | 12 | 0 | 0.0 | 0.0 | 0.00 | 2.26 | 0.03 | 96 | 1008.1 |
| 20260506023005 | 12 | 0 | 0.0 | 0.0 | 0.00 | 2.26 | 0.03 | 96 | 1008.3 |
| 20260506022504 | 12 | 0 | 0.0 | 0.0 | 0.00 | 2.26 | 0.03 | 96 | 1008.2 |
| 20260506022026 | 12 | 0 | 0.0 | 0.0 | 0.00 | 2.26 | 0.03 | 96 | 1008.3 |
| 20260506021504 | 11 | 0 | 0.0 | 0.0 | 0.00 | 2.26 | 0.03 | 96 | 1008.3 |
| 20260506021005 | 11 | 0 | 0.0 | 0.0 | 0.03 | 2.26 | 0.03 | 96 | 1008.4 |
| 20260506020504 | 11 | 0 | 0.0 | 0.0 | 0.03 | 2.26 | 0.03 | 96 | 1008.5 |
| 20260506020004 | 11 | 0 | 0.0 | 0.0 | 0.03 | 2.26 | 0.03 | 96 | 1008.4 |
| 20260506015525 | 12 | 0 | 0.0 | 0.0 | 0.03 | 2.26 | 0.03 | 96 | 1008.5 |
| 20260506015004 | 12 | 0 | 0.0 | 0.0 | 0.03 | 2.26 | 0.03 | 96 | 1008.5 |
| 20260506014526 | 12 | 0 | 0.0 | 0.0 | 0.03 | 2.26 | 0.03 | 96 | 1008.5 |
| 20260506014004 | 12 | 0 | 0.0 | 0.0 | 0.03 | 2.26 | 0.03 | 96 | 1008.6 |
| 20260506013504 | 12 | 0 | 0.0 | 0.0 | 0.03 | 2.26 | 0.03 | 96 | 1008.5 |
| 20260506013004 | 12 | 0 | 0.0 | 0.0 | 0.03 | 2.26 | 0.03 | 96 | 1008.4 |
| 20260506012504 | 12 | 0 | 0.0 | 0.0 | 0.03 | 2.26 | 0.03 | 96 | 1008.5 |
| 20260506012004 | 12 | 0 | 0.0 | 0.0 | 0.03 | 2.26 | 0.03 | 96 | 1008.7 |
| 20260506011525 | 12 | 0 | 0.0 | 0.0 | 0.03 | 2.26 | 0.03 | 96 | 1008.7 |
| 20260506011004 | 12 | 0 | 0.0 | 0.0 | 0.00 | 2.21 | 0.00 | 96 | 1008.8 |
| 20260506010504 | 12 | 0 | 0.0 | 0.0 | 0.00 | 2.21 | 0.00 | 96 | 1008.8 |
| 20260506010005 | 12 | 0 | 0.0 | 0.0 | 0.00 | 2.21 | 0.00 | 96 | 1009.0 |
| 20260506005525 | 12 | 0 | 0.0 | 0.0 | 0.00 | 2.21 | 0.00 | 96 | 1008.9 |
| 20260506005004 | 12 | 0 | 0.0 | 0.0 | 0.00 | 2.21 | 0.00 | 96 | 1009.1 |
| 20260506004505 | 12 | 0 | 0.0 | 0.0 | 0.00 | 2.21 | 0.00 | 96 | 1009.1 |
| 20260506004004 | 12 | 0 | 0.0 | 0.0 | 0.00 | 2.21 | 0.00 | 96 | 1009.2 |
| 20260506003505 | 12 | 0 | 0.0 | 0.0 | 0.00 | 2.21 | 0.00 | 96 | 1009.2 |
| 20260506003005 | 12 | 105 | 1.6 | 4.8 | 0.00 | 2.21 | 0.00 | 96 | 1009.2 |
| 20260506002504 | 12 | 112 | 1.6 | 6.4 | 0.00 | 2.21 | 0.00 | 96 | 1009.3 |
| 20260506002004 | 12 | 120 | 1.6 | 6.4 | 0.00 | 2.21 | 0.00 | 96 | 1009.2 |
| 20260506001504 | 12 | 0 | 0.0 | 0.0 | 0.00 | 2.21 | 0.00 | 96 | 1009.4 |
| 20260506001005 | 12 | 0 | 0.0 | 0.0 | 0.00 | 2.21 | 0.00 | 96 | 1009.3 |
| 20260506000505 | 12 | 0 | 0.0 | 0.0 | 0.00 | 2.21 | 0.00 | 96 | 1009.3 |
| 20260506000005 | 12 | 85 | 0.0 | 3.2 | 0.00 | 2.21 | 0.00 | 96 | 1009.3 |
| 20260505235525 | 12 | 140 | 1.6 | 4.8 | 0.00 | 2.21 | 0.00 | 95 | 1009.5 |
| 20260505235004 | 12 | 153 | 3.2 | 6.4 | 0.00 | 2.21 | 0.00 | 95 | 1009.6 |
| 20260505234504 | 12 | 166 | 3.2 | 6.4 | 0.00 | 2.21 | 0.00 | 95 | 1009.9 |
| 20260505234005 | 12 | 189 | 3.2 | 4.8 | 0.00 | 2.21 | 0.00 | 95 | 1009.9 |
| 20260505233504 | 12 | 152 | 4.8 | 6.4 | 0.00 | 2.21 | 0.00 | 95 | 1009.9 |
| 20260505233005 | 12 | 145 | 3.2 | 6.4 | 0.00 | 2.21 | 0.00 | 95 | 1009.9 |
| 20260505232504 | 12 | 0 | 0.0 | 0.0 | 0.00 | 2.21 | 0.00 | 95 | 1009.7 |
| 20260505232004 | 12 | 0 | 0.0 | 0.0 | 0.00 | 2.21 | 0.00 | 95 | 1009.7 |
| 20260505231504 | 12 | 0 | 0.0 | 0.0 | 0.00 | 2.21 | 0.00 | 95 | 1010.0 |
| 20260505231004 | 12 | 0 | 0.0 | 0.0 | 0.00 | 2.21 | 0.00 | 95 | 1009.9 |
| 20260505230504 | 12 | 0 | 0.0 | 0.0 | 0.00 | 2.21 | 0.00 | 95 | 1010.1 |
| 20260505230004 | 12 | 0 | 0.0 | 0.0 | 0.00 | 2.21 | 0.00 | 95 | 1010.1 |
| 20260505225504 | 12 | 0 | 0.0 | 0.0 | 0.03 | 2.21 | 0.00 | 95 | 1010.2 |
| 20260505225025 | 12 | 0 | 0.0 | 0.0 | 0.03 | 2.21 | 0.00 | 95 | 1010.1 |
| 20260505224525 | 12 | 203 | 1.6 | 6.4 | 0.03 | 2.21 | 0.00 | 95 | 1010.1 |
| 20260505224004 | 12 | 162 | 4.8 | 6.4 | 0.05 | 2.21 | 0.00 | 95 | 1010.1 |
| 20260505223504 | 12 | 149 | 4.8 | 6.4 | 0.10 | 2.21 | 0.00 | 95 | 1010.1 |
| 20260505223004 | 12 | 140 | 3.2 | 4.8 | 0.13 | 2.21 | 0.00 | 95 | 1010.2 |
| 20260505222525 | 12 | 90 | 0.0 | 4.8 | 0.15 | 2.21 | 0.00 | 95 | 1010.2 |
| 20260505222004 | 12 | 190 | 1.6 | 8.0 | 0.18 | 2.21 | 0.00 | 95 | 1010.1 |
| 20260505221525 | 12 | 127 | 4.8 | 8.0 | 0.18 | 2.21 | 0.00 | 95 | 1010.2 |
| 20260505221025 | 12 | 72 | 6.4 | 8.0 | 0.18 | 2.21 | 0.00 | 95 | 1010.1 |
| 20260505220504 | 12 | 81 | 8.0 | 8.0 | 0.18 | 2.21 | 0.00 | 95 | 1010.1 |
| 20260505220025 | 12 | 99 | 6.4 | 8.0 | 0.18 | 2.21 | 0.00 | 95 | 1010.2 |
| 20260505215504 | 12 | 73 | 4.8 | 6.4 | 0.15 | 2.18 | 2.18 | 95 | 1010.2 |
| 20260505215004 | 12 | 72 | 3.2 | 6.4 | 0.15 | 2.18 | 2.18 | 95 | 1010.3 |
| 20260505214504 | 12 | 62 | 3.2 | 6.4 | 0.15 | 2.18 | 2.18 | 95 | 1010.6 |
| 20260505214004 | 12 | 44 | 3.2 | 6.4 | 0.13 | 2.16 | 2.16 | 95 | 1010.5 |
| 20260505213504 | 12 | 79 | 4.8 | 6.4 | 0.10 | 2.13 | 2.13 | 95 | 1010.6 |
| 20260505213004 | 12 | 96 | 4.8 | 6.4 | 0.05 | 2.11 | 2.11 | 95 | 1010.6 |
| 20260505212503 | 12 | 107 | 4.8 | 6.4 | 0.03 | 2.06 | 2.06 | 95 | 1010.7 |
| 20260505212004 | 12 | 129 | 6.4 | 9.7 | 0.00 | 2.03 | 2.03 | 95 | 1010.8 |
| 20260505211504 | 12 | 138 | 9.7 | 12.9 | 0.00 | 2.03 | 2.03 | 95 | 1010.9 |
| 20260505211004 | 12 | 141 | 9.7 | 12.9 | 0.00 | 2.03 | 2.03 | 95 | 1010.9 |
| 20260505210504 | 12 | 133 | 8.0 | 12.9 | 0.00 | 2.03 | 2.03 | 95 | 1010.8 |
| 20260505210004 | 12 | 128 | 8.0 | 11.3 | 0.00 | 2.03 | 2.03 | 94 | 1010.9 |
| 20260505205504 | 12 | 135 | 8.0 | 9.7 | 0.00 | 2.03 | 2.03 | 94 | 1010.8 |
| 20260505205004 | 12 | 132 | 8.0 | 12.9 | 0.00 | 2.03 | 2.03 | 94 | 1010.9 |
| 20260505204504 | 12 | 137 | 9.7 | 12.9 | 0.00 | 2.03 | 2.03 | 94 | 1010.9 |
| 20260505204004 | 12 | 143 | 8.0 | 12.9 | 0.00 | 2.03 | 2.03 | 94 | 1011.1 |
| 20260505203504 | 12 | 132 | 9.7 | 12.9 | 0.03 | 2.03 | 2.03 | 94 | 1011.1 |
| 20260505203025 | 12 | 132 | 11.3 | 12.9 | 0.05 | 2.03 | 2.03 | 94 | 1011.0 |
| 20260505202504 | 12 | 156 | 9.7 | 12.9 | 0.13 | 2.03 | 2.03 | 94 | 1011.0 |
| 20260505202004 | 12 | 145 | 9.7 | 11.3 | 0.15 | 2.03 | 2.03 | 94 | 1011.1 |
| 20260505201504 | 11 | 131 | 9.7 | 12.9 | 0.15 | 2.03 | 2.03 | 94 | 1011.0 |
| 20260505201004 | 11 | 139 | 8.0 | 12.9 | 0.18 | 2.03 | 2.03 | 94 | 1011.1 |
| 20260505200504 | 11 | 144 | 9.7 | 11.3 | 0.23 | 2.03 | 2.03 | 94 | 1011.1 |
| 20260505200004 | 11 | 172 | 11.3 | 12.9 | 0.23 | 2.03 | 2.03 | 94 | 1010.8 |
| 20260505195504 | 11 | 169 | 9.7 | 12.9 | 0.30 | 2.03 | 2.03 | 94 | 1010.9 |
| 20260505195004 | 11 | 148 | 6.4 | 12.9 | 0.30 | 2.03 | 2.03 | 94 | 1010.8 |
| 20260505194504 | 11 | 213 | 1.6 | 4.8 | 0.30 | 2.03 | 2.03 | 94 | 1010.8 |
| 20260505194004 | 11 | 0 | 0.0 | 0.0 | 0.30 | 2.03 | 2.03 | 94 | 1010.8 |
| 20260505193525 | 11 | 0 | 0.0 | 0.0 | 0.30 | 2.01 | 2.03 | 94 | 1010.8 |
| 20260505193004 | 11 | 0 | 0.0 | 0.0 | 0.28 | 1.98 | 1.98 | 94 | 1010.8 |
| 20260505192504 | 11 | 0 | 0.0 | 0.0 | 0.20 | 1.93 | 1.93 | 94 | 1011.0 |
| 20260505192004 | 11 | 0 | 0.0 | 0.0 | 0.20 | 1.88 | 1.88 | 93 | 1010.8 |
| 20260505191504 | 11 | 350 | 0.0 | 3.2 | 0.20 | 1.88 | 1.88 | 93 | 1010.6 |
| 20260505191025 | 11 | 359 | 1.6 | 3.2 | 0.18 | 1.85 | 1.85 | 93 | 1010.8 |
| 20260505190504 | 11 | 356 | 3.2 | 3.2 | 0.18 | 1.80 | 1.80 | 94 | 1010.7 |
| 20260505190004 | 11 | 335 | 1.6 | 3.2 | 0.18 | 1.80 | 1.80 | 94 | 1010.8 |
| 20260505185504 | 11 | 172 | 1.6 | 4.8 | 0.18 | 1.75 | 1.75 | 94 | 1010.5 |
| 20260505185004 | 11 | 135 | 1.6 | 4.8 | 0.18 | 1.75 | 1.75 | 94 | 1010.5 |
| 20260505184504 | 11 | 153 | 1.6 | 6.4 | 0.18 | 1.75 | 1.75 | 94 | 1010.5 |
| 20260505184024 | 11 | 121 | 3.2 | 6.4 | 0.18 | 1.75 | 1.75 | 94 | 1010.5 |
| 20260505183504 | 11 | 111 | 4.8 | 11.3 | 0.15 | 1.70 | 1.70 | 94 | 1010.5 |
| 20260505183004 | 11 | 117 | 6.4 | 11.3 | 0.18 | 1.70 | 1.70 | 94 | 1010.6 |
| 20260505182504 | 11 | 70 | 4.8 | 9.7 | 0.18 | 1.70 | 1.70 | 93 | 1010.4 |
| 20260505182003 | 11 | 32 | 4.8 | 6.4 | 0.18 | 1.68 | 1.68 | 93 | 1010.5 |
| 20260505181504 | 11 | 37 | 4.8 | 6.4 | 0.20 | 1.68 | 1.68 | 93 | 1010.5 |
| 20260505181003 | 11 | 47 | 1.6 | 6.4 | 0.23 | 1.68 | 1.68 | 93 | 1010.5 |
| 20260505180504 | 11 | 15 | 0.0 | 1.6 | 0.18 | 1.63 | 1.63 | 93 | 1010.5 |
| 20260505180004 | 11 | 15 | 0.0 | 1.6 | 0.18 | 1.63 | 1.63 | 93 | 1010.6 |
| 20260505175504 | 11 | 315 | 0.0 | 1.6 | 0.15 | 1.55 | 1.55 | 93 | 1010.5 |
| 20260505175004 | 11 | 295 | 1.6 | 3.2 | 0.18 | 1.55 | 1.55 | 93 | 1010.5 |
| 20260505174504 | 11 | 238 | 3.2 | 4.8 | 0.20 | 1.55 | 1.55 | 93 | 1010.6 |
| 20260505174004 | 11 | 325 | 4.8 | 4.8 | 0.28 | 1.55 | 1.55 | 93 | 1010.6 |
| 20260505173504 | 11 | 13 | 4.8 | 8.0 | 0.30 | 1.55 | 1.55 | 93 | 1010.5 |
| 20260505173025 | 11 | 6 | 6.4 | 8.0 | 0.30 | 1.52 | 1.52 | 93 | 1010.6 |
| 20260505172504 | 11 | 2 | 4.8 | 6.4 | 0.30 | 1.52 | 1.52 | 93 | 1010.6 |
| 20260505172004 | 11 | 1 | 4.8 | 6.4 | 0.28 | 1.50 | 1.50 | 93 | 1010.6 |
| 20260505171525 | 11 | 6 | 6.4 | 8.0 | 0.23 | 1.47 | 1.47 | 93 | 1010.6 |
| 20260505171004 | 11 | 12 | 3.2 | 8.0 | 0.20 | 1.45 | 1.45 | 93 | 1010.6 |
| 20260505170503 | 11 | 359 | 1.6 | 4.8 | 0.23 | 1.45 | 1.45 | 93 | 1010.6 |
| 20260505170004 | 11 | 358 | 3.2 | 6.4 | 0.23 | 1.45 | 1.45 | 93 | 1010.7 |
| 20260505165504 | 11 | 347 | 4.8 | 6.4 | 0.20 | 1.42 | 1.42 | 93 | 1010.7 |
| 20260505165004 | 11 | 355 | 4.8 | 6.4 | 0.18 | 1.37 | 1.37 | 93 | 1010.5 |
| 20260505164504 | 11 | 7 | 6.4 | 6.4 | 0.18 | 1.35 | 1.35 | 93 | 1010.6 |
| 20260505164003 | 11 | 14 | 3.2 | 6.4 | 0.13 | 1.30 | 1.30 | 93 | 1010.7 |
| 20260505163504 | 11 | 22 | 1.6 | 4.8 | 0.10 | 1.27 | 1.27 | 93 | 1010.6 |
| 20260505163004 | 11 | 12 | 3.2 | 6.4 | 0.05 | 1.22 | 1.22 | 93 | 1010.8 |
| 20260505162504 | 11 | 8 | 4.8 | 6.4 | 0.05 | 1.22 | 1.22 | 93 | 1010.8 |
| 20260505162004 | 11 | 1 | 6.4 | 6.4 | 0.05 | 1.22 | 1.22 | 93 | 1010.7 |
| 20260505161504 | 11 | 3 | 4.8 | 6.4 | 0.05 | 1.22 | 1.22 | 92 | 1010.7 |
| 20260505161003 | 11 | 10 | 1.6 | 6.4 | 0.05 | 1.22 | 1.22 | 92 | 1010.6 |
| 20260505160503 | 11 | 337 | 1.6 | 6.4 | 0.03 | 1.19 | 1.19 | 92 | 1010.8 |
| 20260505153003 | 11 | 1 | 4.8 | 6.4 | 0.10 | 1.17 | 1.17 | 92 | 1010.9 |
| 20260505152504 | 11 | 354 | 4.8 | 6.4 | 0.10 | 1.17 | 1.17 | 92 | 1011.0 |
| 20260505152004 | 11 | 2 | 4.8 | 6.4 | 0.10 | 1.17 | 1.17 | 92 | 1011.1 |
| 20260505151525 | 11 | 10 | 6.4 | 9.7 | 0.10 | 1.17 | 1.17 | 92 | 1011.1 |
| 20260505151003 | 11 | 13 | 4.8 | 9.7 | 0.10 | 1.17 | 1.17 | 92 | 1011.0 |
| 20260505150503 | 11 | 10 | 3.2 | 4.8 | 0.10 | 1.17 | 1.17 | 92 | 1010.9 |
| 20260505140503 | 11 | 360 | 4.8 | 8.0 | 0.13 | 1.09 | 1.09 | 91 | 1011.3 |
| 20260505125004 | 11 | 0 | 0.0 | 0.0 | 0.05 | 0.94 | 0.94 | 90 | 1011.8 |
| 20260505124503 | 11 | 351 | 0.0 | 3.2 | 0.05 | 0.94 | 0.94 | 90 | 1011.8 |
| 20260505124025 | 11 | 356 | 1.6 | 3.2 | 0.10 | 0.94 | 0.94 | 90 | 1011.7 |
| 20260505123524 | 11 | 353 | 3.2 | 6.4 | 0.10 | 0.94 | 0.94 | 90 | 1011.6 |
| 20260505123003 | 11 | 351 | 4.8 | 8.0 | 0.05 | 0.89 | 0.89 | 90 | 1011.7 |
| 20260505122504 | 11 | 342 | 4.8 | 8.0 | 0.05 | 0.89 | 0.89 | 90 | 1011.6 |
| 20260505122004 | 12 | 335 | 4.8 | 6.4 | 0.10 | 0.89 | 0.89 | 90 | 1011.7 |
| 20260505121503 | 12 | 335 | 3.2 | 6.4 | 0.10 | 0.89 | 0.89 | 90 | 1011.6 |
| 20260505121004 | 12 | 348 | 3.2 | 6.4 | 0.10 | 0.89 | 0.89 | 90 | 1011.6 |
| 20260505120503 | 12 | 359 | 4.8 | 6.4 | 0.05 | 0.86 | 0.86 | 90 | 1011.6 |
| 20260505120024 | 12 | 357 | 3.2 | 6.4 | 0.10 | 0.86 | 0.86 | 90 | 1011.6 |
| 20260505115503 | 12 | 344 | 1.6 | 4.8 | 0.10 | 0.86 | 0.86 | 90 | 1011.5 |
| 20260505115003 | 12 | 358 | 1.6 | 3.2 | 0.10 | 0.86 | 0.86 | 90 | 1011.7 |
| 20260505114504 | 12 | 15 | 1.6 | 3.2 | 0.13 | 0.86 | 0.86 | 90 | 1011.8 |
| 20260505114003 | 12 | 18 | 1.6 | 4.8 | 0.10 | 0.84 | 0.84 | 90 | 1011.6 |
| 20260505113524 | 12 | 14 | 3.2 | 4.8 | 0.10 | 0.84 | 0.84 | 90 | 1011.7 |
| 20260505113003 | 12 | 11 | 3.2 | 4.8 | 0.10 | 0.84 | 0.84 | 90 | 1011.7 |
| 20260505112524 | 12 | 9 | 1.6 | 3.2 | 0.13 | 0.84 | 0.84 | 90 | 1011.7 |
| 20260505112003 | 12 | 10 | 1.6 | 3.2 | 0.10 | 0.81 | 0.81 | 90 | 1011.8 |
| 20260505111503 | 12 | 16 | 1.6 | 3.2 | 0.10 | 0.81 | 0.81 | 90 | 1011.8 |
| 20260505111004 | 12 | 360 | 1.6 | 4.8 | 0.10 | 0.81 | 0.81 | 90 | 1011.9 |
| 20260505110525 | 12 | 351 | 3.2 | 6.4 | 0.13 | 0.81 | 0.81 | 90 | 1011.8 |
| 20260505102004 | 12 | 308 | 4.8 | 9.7 | 0.15 | 0.71 | 0.71 | 90 | 1011.7 |
| 20260505101503 | 12 | 331 | 4.8 | 9.7 | 0.15 | 0.71 | 0.71 | 90 | 1011.6 |
| 20260505101004 | 12 | 339 | 6.4 | 9.7 | 0.15 | 0.71 | 0.71 | 90 | 1011.8 |
| 20260505100504 | 12 | 337 | 6.4 | 8.0 | 0.15 | 0.69 | 0.69 | 90 | 1011.9 |
| 20260505100004 | 12 | 331 | 6.4 | 8.0 | 0.15 | 0.69 | 0.69 | 90 | 1011.9 |
| 20260505095503 | 12 | 332 | 6.4 | 9.7 | 0.13 | 0.66 | 0.66 | 90 | 1012.0 |
| 20260505095003 | 12 | 339 | 4.8 | 9.7 | 0.13 | 0.66 | 0.66 | 86 | 1011.8 |
| 20260505094504 | 12 | 350 | 4.8 | 6.4 | 0.10 | 0.64 | 0.64 | 86 | 1011.9 |
| 20260505094003 | 12 | 347 | 3.2 | 6.4 | 0.05 | 0.61 | 0.61 | 86 | 1012.1 |
| 20260505093524 | 12 | 1 | 1.6 | 6.4 | 0.05 | 0.61 | 0.61 | 86 | 1012.0 |
| 20260505093004 | 12 | 19 | 3.2 | 6.4 | 0.05 | 0.61 | 0.61 | 90 | 1012.0 |
| 20260505092504 | 12 | 6 | 4.8 | 6.4 | 0.05 | 0.61 | 0.61 | 90 | 1012.0 |
| 20260505092003 | 12 | 358 | 3.2 | 6.4 | 0.03 | 0.56 | 0.56 | 86 | 1011.9 |
| 20260505091503 | 12 | 6 | 1.6 | 3.2 | 0.03 | 0.56 | 0.56 | 86 | 1011.8 |
| 20260505091003 | 12 | 360 | 0.0 | 3.2 | 0.03 | 0.56 | 0.56 | 90 | 1011.9 |
| 20260505090524 | 12 | 0 | 0.0 | 0.0 | 0.03 | 0.53 | 0.53 | 90 | 1012.1 |
| 20260505090024 | 12 | 0 | 0.0 | 0.0 | 0.03 | 0.53 | 0.53 | 90 | 1011.9 |
| 20260505085504 | 12 | 5 | 0.0 | 3.2 | 0.03 | 0.53 | 0.53 | 90 | 1011.8 |
| 20260505085003 | 12 | 7 | 1.6 | 4.8 | 0.03 | 0.53 | 0.53 | 90 | 1011.9 |
| 20260505084504 | 12 | 6 | 1.6 | 4.8 | 0.03 | 0.53 | 0.53 | 90 | 1011.8 |
| 20260505084003 | 12 | 360 | 0.0 | 1.6 | 0.03 | 0.53 | 0.53 | 90 | 1011.8 |
| 20260505083503 | 12 | 359 | 1.6 | 6.4 | 0.03 | 0.53 | 0.53 | 90 | 1011.7 |
| 20260505083003 | 12 | 360 | 3.2 | 6.4 | 0.03 | 0.53 | 0.53 | 90 | 1011.6 |
| 20260505082524 | 11 | 360 | 6.4 | 6.4 | 0.03 | 0.53 | 0.53 | 90 | 1011.6 |
| 20260505082003 | 11 | 357 | 4.8 | 6.4 | 0.03 | 0.53 | 0.53 | 90 | 1011.5 |
| 20260505081503 | 11 | 358 | 3.2 | 6.4 | 0.03 | 0.53 | 0.53 | 90 | 1011.4 |
| 20260505081003 | 11 | 10 | 1.6 | 6.4 | 0.05 | 0.53 | 0.53 | 89 | 1011.4 |
| 20260505080503 | 11 | 6 | 1.6 | 3.2 | 0.03 | 0.51 | 0.51 | 89 | 1011.4 |
| 20260505080004 | 11 | 360 | 4.8 | 6.4 | 0.05 | 0.51 | 0.51 | 89 | 1011.5 |
| 20260505075503 | 11 | 360 | 4.8 | 6.4 | 0.05 | 0.51 | 0.51 | 89 | 1011.4 |
| 20260505075003 | 11 | 5 | 3.2 | 6.4 | 0.10 | 0.51 | 0.51 | 88 | 1011.5 |
| 20260505074504 | 11 | 357 | 3.2 | 6.4 | 0.15 | 0.51 | 0.51 | 88 | 1011.1 |
| 20260505074003 | 11 | 350 | 3.2 | 6.4 | 0.20 | 0.51 | 0.51 | 88 | 1011.4 |